Regional Weather Roundup
Issued by NWS

Home | Current Version | Previous Version | Graphics & Text | Print | Product List | Glossary On
Versions: 1 2 3 4 5 6 7 8 9 10 11 12 13 14 15 16 17 18 19 20 21 22 23 24 25 26 27 28 29 30 31 32 33 34 35 36 37 38 39 40 41 42 43 44 45 46 47 48 49 50
000
ASUS43 KLOT 261306
RWRIL

ILLINOIS REGIONAL WEATHER ROUNDUP
NATIONAL WEATHER SERVICE CHICAGO/ROMEOVILLE IL
700 AM CST WED NOV 26 2014

NOTE: "FAIR" INDICATES FEW OR NO CLOUDS BELOW 12,000 FEET WITH NO
SIGNIFICANT WEATHER AND/OR OBSTRUCTIONS TO VISIBILITY.

* THESE STATIONS ARE NOT UNDER NWS QUALITY CONTROL. THEY ALSO MAY NOT
  REPORT WEATHER SUCH AS PRECIPITATION OR FOG.

ILZ001-002-007-009-015-016-024-261400-
NORTHWEST ILLINOIS

CITY           SKY/WX    TMP DP  RH WIND       PRES   REMARKS
MOLINE         CLOUDY    19  16  88 E7        30.07S WCI  10
STERLING*      PTCLDY    16  12  86 E7        30.10F WCI   6
SAVANNA*       MOCLDY    18  15  91 E6        30.11S WCI   9
$$

ILZ003-004-008-010-011-017-018-261400-
NORTH CENTRAL ILLINOIS

CITY           SKY/WX    TMP DP  RH WIND       PRES   REMARKS
ROCKFORD       MOCLDY    17  12  80 E3        30.16R HAZE
FREEPORT*      CLOUDY     9   6  89 CALM      30.13S FOG
ROCHELLE*      PTCLDY    16  15  93 SE7       30.13R FOG     WCI   7
DE KALB*       CLOUDY    19  17  93 E5        30.13S FOG     WCI  12
PERU*          PTCLDY    17  16  93 E7        30.13S FOG     WCI   8
$$

ILZ005-006-012>014-019>023-261400-
NORTHEAST ILLINOIS

CITY           SKY/WX    TMP DP  RH WIND       PRES   REMARKS
CHICAGO-OHARE  CLOUDY    19  16  88 CALM      30.14F FOG
CHICAGO-MIDWAY CLOUDY    24  19  81 S5        30.16S HAZE    WCI  18
AURORA         CLOUDY    22  17  81 E7        30.14F HAZE    WCI  13
LANSING*       CLOUDY    24  19  81 SE6       30.17S WCI  17
JOLIET*        CLOUDY    23  20  89 E6        30.16S FOG     WCI  15
WAUKEGAN       CLOUDY    17  14  88 NW3       30.14F FOG
DUPAGE AIRPORT CLOUDY    21  17  84 E5        30.14S FOG     WCI  15
KANKAKEE*      CLOUDY   N/A N/A N/A E9        30.16S
WHEELING       MOCLDY    18  14  84 CALM      30.17S FOG
MORRIS*        CLOUDY    23  22  96 SE7       30.15S FOG     WCI  15
ROMEOVILLE*    CLOUDY    23  21  92 E8        30.16S WCI  14
NORTHERLY ISL    N/A     25  20  81 S5          N/A  WCI  19
$$

LMZ740>746-261400-
SOUTHERN LAKE MICHIGAN

STATION/POSITION SKY/WX   TEMP    WIND        PRES    VSBY  WAVE
                          AIR SEA DIR/SP/G                  HT/PER
                          (F)     (DEG/KT/KT) (MB)    (MI)  (FT/S)
SOUTHERN BUOY              29 42  260/  2/  4 1022.1R         1/ 4
WAUKEGAN HARBOR            19     300/  6/  9   N/A
HARRISON CRIB              27     150/  8/ 11   N/A
BURNHAM HARBOR             25     190/  5/  6   N/A
CALUMET HARBOR             24     170/  5/  7 1020.1F
MICHIGAN CITY              23      90/  5/  7   N/A
$$

ILZ025>027-034>036-040-047-049-050-058-095>099-261400-
WEST-CENTRAL ILLINOIS

CITY           SKY/WX    TMP DP  RH WIND       PRES   REMARKS
QUINCY         CLOUDY    29  24  82 SE9       30.01F WCI  20
GALESBURG*     CLOUDY    23  22  95 E6        30.06S WCI  16
MACOMB*        MOCLDY    25  25  97 SE10      30.07F WCI  15
JACKSONVILLE*  MOCLDY    30  27  86 SE13      30.06F WCI  20
PITTSFIELD*    MOCLDY    30  27  90 SE7       30.05F WCI  23
$$

ILZ028>032-037-038-041>044-048-051>054-059>061-261400-
CENTRAL ILLINOIS

CITY           SKY/WX    TMP DP  RH WIND       PRES   REMARKS
PONTIAC        MOCLDY    23  21  91 SE12      30.15R WCI  12
BLOOMINGTON    PTCLDY    21  20  96 SE10      30.11F WCI  10
DECATUR        PTCLDY    23  21  92 SE7       30.12S WCI  15
PEORIA         MOCLDY    25  20  81 SE5       30.10S WCI  19
LACON*         CLEAR     19  17  89 SE5       30.11S WCI  13
LINCOLN*       MOCLDY    25  23  91 SE6       30.12S WCI  18
SPRINGFIELD    CLOUDY    26  24  92 E9        30.10S WCI  17
TAYLORVILLE    MOCLDY    27  23  86 SE10      30.10S WCI  17
$$

ILZ033-039-045-046-055>057-062-063-261400-
EAST-CENTRAL ILLINOIS

CITY           SKY/WX    TMP DP  RH WIND       PRES   REMARKS
CHAMPAIGN      PTCLDY    21  18  88 E7        30.13F WCI  12
DANVILLE*      CLOUDY    23  21  92 CALM      30.12S
RANTOUL*       CLOUDY    23  21  91 E3        30.14R FOG
MATTOON        MOCLDY    24  21  88 SE7       30.13R WCI  16
PARIS*         MOCLDY    24  23  97 CALM      30.15S FOG
$$

ILZ079-100>102-261400-
SOUTHWEST ILLINOIS

CITY           SKY/WX    TMP DP  RH WIND       PRES   REMARKS
BELLEVILLE     PTCLDY    25  25  99 E3        30.10S
CAHOKIA*       PTCLDY    28  25  88 SE5       30.10R WCI  23
SPARTA*        CLEAR     26  24  93 SE5       30.12R WCI  20
$$

ILZ064>066-069>071-074>076-080>082-084>086-088>090-092>094-261400-
SOUTH-CENTRAL ILLINOIS

CITY           SKY/WX    TMP DP  RH WIND       PRES   REMARKS
CARBONDALE     CLEAR     20  17  88 E5        30.12S WCI  13
CAIRO*         PTCLDY    28  25  89 N3        30.14R FOG
EFFINGHAM*     MOCLDY    25  22  87 E5        30.14S WCI  19
MARION         PTCLDY    25  23  93 SE7       30.14R WCI  17
MT. VERNON     PTCLDY    25  19  80 E3        30.13S
CENTRALIA*     CLEAR     25  22  89 E5        30.11S WCI  19
SALEM*           N/A     27  24  87 SE5       30.13R WCI  22
METROPOLIS*    MOCLDY    25  25 100 CALM        N/A  FOG
$$

ILZ067-068-072-073-078-083-087-091-261400-
SOUTHEAST ILLINOIS

CITY           SKY/WX    TMP DP  RH WIND       PRES   REMARKS
LAWRENCEVILLE  CLEAR     24  22  91 NE5       30.16S FOG     WCI  18
FLORA*         CLEAR     23  23  98 CALM      30.15S FOG
FAIRFIELD*     MOCLDY    24  22  93 E3        30.14S FOG
HARRISBURG*    MOCLDY    27  27 100 E6        30.16S FOG     WCI  20
ROBINSON*      PTCLDY    21  20  97 CALM      30.17S FOG
CARMI*         PTCLDY    24  24 100 CALM      30.15S FOG
$$

ABBREVIATIONS USED IN REMARKS
   TC - TEMPERATURE IN CELSIUS
  WCI - WIND CHILL INDEX
   HX - HEAT INDEX
  VSB - VISIBILITY
$$




USA.gov is the U.S. government's official web portal to all federal, state and local government web resources and services.